Powrót do katalogu

FENGYUN 1C DEB

AktywnyLEO
NORAD 31648·DEBRIS·🇨🇳 China

Wystrzelony May 10, 1999 z Taiyuan Satellite Launch Center

Loading…

Następne Przeloty (najbliższe 24 godziny)

TLE

Starzejące sięSource: Space-Track

Epoka: Sep 9, 2026, 01:06 UTC

1 31648U 99025CBE 26252.04614210  .00004957  00000-0  24261-2 0  9994
2 31648 102.7876 197.0812 0040468 227.1624 132.6132 14.18229371757262

Śledź FENGYUN 1C DEB w czasie rzeczywistym z AllMySat

Download on the App Store